982  
SXUS52 KTAE 140816  
OSOTAE  
OSOTAE  
NORTH FLORIDA/SOUTH ALABAMA/SOUTHWEST GEORGIA WEATHER ROUNDUP  
NATIONAL WEATHER SERVICE TALLAHASSEE FLORIDA  
400 AM EDT FRI AUG 14 2020  
 
NOTE: "FAIR" INDICATES FEW OR NO CLOUDS BELOW 12,000 FEET WITH NO  
SIGNIFICANT WEATHER AND/OR OBSTRUCTIONS TO VISIBILITY.  
 
!FLZ017-115-028-034-025-140900   
..NORTH FLORIDA
 
 
 
CITY SKY/WX TMP DP RH WIND PRES REMARKS  
TALL INTL ARPT CLEAR 76 75 97 CALM 29.97F  
FSU LOVE BLDG N/A N/A N/A N/A MISG N/A  
APALACHICOLA PTCLDY 8 32 100 SW5 29.97F WCI 0  
PERRY NOT AVBL  
CROSS CITY N/A 74 73 97 CALM 29.99S  
JACKSONVILLE MOCLDY 75 73 93 CALM 29.98S  

 
 
!FLZ112-006-005-002-011-140900   
..FLORIDA PANHANDLE
 
 
 
CITY SKY/WX TMP DP RH WIND PRES REMARKS  
MARIANNA PTCLDY 76 73 91 CALM 29.96F  
BONIFAY FAIR 75 73 93 CALM 29.97  
PANAMA CITY NW LGT RAIN 78 76 93 SW8 29.95S  
TYNDALL AFB TSTM 75 73 94 E6 29.95 FOG  
TYND DRONE APT TSTM 75 72 88 NE10G17 29.96  
DE FUNIAK SPR FAIR 75 73 95 CALM 29.97F  
EGLIN AFB CLEAR 75 73 93 CALM 29.95  
DESTIN CLEAR 79 74 84 N3 29.95F  
HURLBURT PTCLDY 74 72 93 CALM 29.94F  
CRESTVIEW MOCLDY 73 71 93 CALM 29.97F  
PENSACOLA N/A N/A N/A N/A MISG N/A  

 
 
!ALZ063-066-140900   
..SOUTH ALABAMA
 
 
 
CITY SKY/WX TMP DP RH WIND PRES REMARKS  
DOTHAN PTCLDY 75 73 93 S3 30.00F  
OZARK CAIRNS PTCLDY 74 73 96 CALM 29.96  
FT RUCKER HELI PTCLDY 73 72 95 CALM 29.96S  
RUCKER HELI 3 FAIR 74 73 96 CALM 29.96F  
RUCKER HELI 2 CLOUDY 74 73 97 CALM 29.95F  
FLORALA APT NOT AVBL  
ANDALUSIA MOCLDY 77 71 82 CALM 29.97  
TROY MOCLDY 75 72 90 S3 29.97F  
EUFALA NOT AVBL  
MOBILE PTCLDY 74 74 100 CALM 29.97F  

 
 
!GAZ120>161-140900   
..SOUTHWEST AND SOUTH CENTRAL GEORGIA
 
 
 
CITY SKY/WX TMP DP RH WIND PRES REMARKS  
THOMASVILLE FAIR 73 73 100 CALM 29.99S  
BAINBRIDGE MOCLDY 76 75 96 S6 29.98S  
MOODY AFB CLEAR 75 73 93 CALM 29.97  
VALDOSTA CLEAR 74 72 93 CALM 29.98S  
MOULTRIE CLEAR 73 73 100 CALM 29.99F  
BLAKELY MOCLDY 72 70 94 CALM 29.97F  
ALBANY PTCLDY 76 75 97 CALM 29.98F  
TIFTON FAIR 76 74 96 CALM 29.98  
FITZGERALD FAIR 76 75 97 CALM 30.00F  
CORDELE CLOUDY 76 73 90 CALM 29.99S  
AMERICUS FAIR 77 73 88 CALM 29.99F  
HOMERVILLE FAIR 73 72 94 CALM 29.98F  

 
 
!GMZ750-755-770-775-140900   
..COASTAL AND BUOY OBS
 
 
 
STATION/POSITION TIME TEMP WIND PRES VSBY WAVE  
AIR SEA DIR/SP/G HT/PER  
(UTC) (F) (DEG/KT/KT) (MB) (MI) (FT/S)  
KEATON BEACH 0800 77 60/ 3/ 4 1015.2F  
CEDAR KEY 0800 83 150/ 9/ 10 1015.5F  
C TOWER 0800 83 220/ 7/ 9 1015.0F  
APALACHICOLA BUO 0750 150/ 6/ 8 1015.3F 1  
PANAMA CITY BUOY 0800 220/ 8/ 10 1014.3  
MOBILE BUOY 0800 85 210/ 10/ 12 1014.3  
ORANGE BCH AL BU 0800 78 260/ 14/ 21 1014.4  

 
 
 
CLICK HERE TO GO TO PREVIOUS BULLETINS.

The Nexlab FL Page
The Nexlab GA Page
The Nexlab AL Page Main Text Page